Weather History for KDSM - December, 2013

Change the Weather History Date:

Tuesday, December 31, 2013

  Actual Average Record
Temperature  
Mean Temperature 11 °F 23 °F  
Max Temperature 17 °F 31 °F 61 °F (1965)
Min Temperature 4 °F 15 °F -15 °F (1968)
Degree Days  
Heating Degree Days 54 42  
Month to date heating degree days 1353 1209  
Since 1 July heating degree days 2556 2467  
Cooling Degree Days 0 0  
Month to date cooling degree days 0 0  
Year to date cooling degree days 1353 1066  
Moisture  
Dew Point 4 °F    
Average Humidity 78    
Maximum Humidity 88    
Minimum Humidity 67    
Precipitation  
Precipitation T in 0.04 in 1.37 in (1931)
Month to date precipitation 0.81 1.42  
Year to date precipitation 32.00 36.02  
Snow  
Snow T in 0.30 in 7.70 in (1977)
Month to date snowfall 13.6 9.0  
Since 1 July snowfall 15.0 11.9  
Snow Depth 2.00 in    
Sea Level Pressure  
Sea Level Pressure 30.28 in    
Wind  
Wind Speed 9 mph (ENE)    
Max Wind Speed 17 mph    
Max Gust Speed 22 mph    
Visibility 10 miles    
Events Snow    
T = Trace of Precipitation, MM = Missing Value Source: NWS Daily Summary

Daily Weather History Graph

Daily Weather History Graph

Search for Another Location

Airport or City:

Trip Planner

Search our weather history database for the weather conditions in past years. The results will help you decide how hot, cold, wet, or windy it might be!

Date:

Astronomy

Dec. 31, 2013 Rise Set
Actual Time 7:41 AM CST 4:54 PM CST
Civil Twilight 7:09 AM CST 5:26 PM CST
Nautical Twilight 6:34 AM CST 6:00 PM CST
Astronomical Twilight 6:01 AM CST 6:34 PM CST
Moon 6:34 AM CST (12/31) 4:32 PM CST (12/31)
Length of Visible Light 10h 16m
Length of Day
9h 13m
Waning Crescent, 1% of the Moon is Illuminated
Dec 31
Waning Crescent
Jan 1
New
Jan 7
First Quarter
Jan 15
Full
Jan 23
Last Quarter

Hourly Weather History & Observations

Time (CST) Temp. Windchill Dew Point Humidity Pressure Visibility Wind Dir Wind Speed Gust Speed Precip Events Conditions
12:54 AM 10.9 °F -1.8 °F 6.1 °F 81% 30.30 in 10.0 mi NNW 9.2 mph - N/A   Partly Cloudy
1:54 AM 7.0 °F -4.5 °F 3.0 °F 84% 30.29 in 10.0 mi NW 6.9 mph - N/A   Clear
2:54 AM 7.0 °F -1.7 °F 1.9 °F 80% 30.30 in 10.0 mi WNW 4.6 mph - N/A   Clear
3:54 AM 5.0 °F -9.1 °F -0.0 °F 80% 30.30 in 10.0 mi West 9.2 mph - N/A   Scattered Clouds
4:54 AM 8.1 °F -3.2 °F 1.9 °F 76% 30.33 in 10.0 mi NNW 6.9 mph - N/A   Overcast
5:54 AM 8.1 °F -2.0 °F 1.9 °F 76% 30.35 in 10.0 mi NW 5.8 mph - N/A   Overcast
6:54 AM 9.0 °F - 1.9 °F 73% 30.34 in 10.0 mi Calm Calm - N/A   Overcast
7:54 AM 9.0 °F 2.4 °F 3.0 °F 77% 30.34 in 10.0 mi South 3.5 mph - N/A   Overcast
8:54 AM 10.9 °F 4.7 °F 3.0 °F 70% 30.34 in 10.0 mi East 3.5 mph - N/A   Overcast
9:54 AM 12.0 °F 4.1 °F 3.9 °F 70% 30.33 in 10.0 mi SE 4.6 mph - N/A   Overcast
10:54 AM 12.9 °F 0.7 °F 5.0 °F 71% 30.31 in 10.0 mi East 9.2 mph - N/A   Overcast
11:54 AM 14.0 °F 2.9 °F 6.1 °F 71% 30.26 in 10.0 mi East 8.1 mph - N/A   Overcast
12:54 PM 15.1 °F 1.1 °F 6.1 °F 68% 30.23 in 10.0 mi ESE 12.7 mph - N/A   Overcast
1:54 PM 15.1 °F 1.8 °F 6.1 °F 68% 30.21 in 10.0 mi East 11.5 mph - N/A   Mostly Cloudy
2:54 PM 15.1 °F -0.6 °F 6.1 °F 68% 30.21 in 8.0 mi ENE 16.1 mph - 0.00 in Snow Light Snow
3:41 PM 15.1 °F -0.1 °F 5.0 °F 64% 30.16 in 10.0 mi ENE 15.0 mph - 0.00 in   Overcast
3:54 PM 14.0 °F -0.2 °F 5.0 °F 67% 30.23 in 10.0 mi ENE 12.7 mph - 0.00 in   Overcast
4:17 PM 12.9 °F -1.6 °F 5.0 °F 71% 30.19 in 10.0 mi ENE 12.7 mph - N/A   Mostly Cloudy
4:54 PM 12.9 °F -3.4 °F 3.9 °F 67% 30.25 in 10.0 mi ENE 16.1 mph - N/A   Mostly Cloudy
5:54 PM 10.9 °F -4.7 °F 3.0 °F 70% 30.27 in 10.0 mi ENE 13.8 mph - N/A   Overcast
6:54 PM 10.9 °F -2.6 °F 3.9 °F 73% 30.27 in 10.0 mi ENE 10.4 mph - N/A   Overcast
7:54 PM 10.9 °F -3.4 °F 3.9 °F 73% 30.28 in 10.0 mi NE 11.5 mph - N/A   Overcast
8:54 PM 10.9 °F -0.8 °F 3.9 °F 73% 30.28 in 10.0 mi NE 8.1 mph - N/A   Mostly Cloudy
9:54 PM 10.9 °F -1.8 °F 3.9 °F 73% 30.28 in 10.0 mi NE 9.2 mph - N/A   Overcast
10:54 PM 10.0 °F -2.9 °F 3.0 °F 73% 30.26 in 10.0 mi ENE 9.2 mph - N/A   Mostly Cloudy
11:54 PM 10.0 °F -3.7 °F 3.0 °F 73% 30.26 in 10.0 mi ENE 10.4 mph - N/A   Scattered Clouds